Mora, MN

10:15 AM CDT on August 18, 2017 (GMT -0500)
Mora Municipal

Weather History for KJMR - October, 2013

Change the Weather History Date:

Wednesday, October 2, 2013

  Actual Average Record
Temperature  
Mean Temperature 52 °F -  
Max Temperature 71 °F 66 °F 91 °F (1992)
Min Temperature 33 °F 34 °F 12 °F (1974)
Degree Days  
Heating Degree Days 13    
Growing Degree Days 2 (Base 50)    
Moisture  
Dew Point 40 °F    
Average Humidity 74    
Maximum Humidity 100    
Minimum Humidity 27    
Precipitation  
Precipitation 0.00 in - - ()
Sea Level Pressure  
Sea Level Pressure 30.00 in    
Wind  
Wind Speed 2 mph (East)    
Max Wind Speed 13 mph    
Max Gust Speed 17 mph    
Visibility 10 miles    
Events      
Averages and records for this station are not official NWS values.
T = Trace of Precipitation, MM = Missing Value Source: NWS Daily Summary

Daily Weather History Graph

Daily Weather History Graph

Search for Another Location

Airport or City:

Trip Planner

Search our weather history database for the weather conditions in past years. The results will help you decide how hot, cold, wet, or windy it might be!

Date:

Astronomy

Oct. 02, 2013 Rise Set
Actual Time 7:13 AM CDT 6:50 PM CDT
Civil Twilight 6:43 AM CDT 7:20 PM CDT
Nautical Twilight 6:08 AM CDT 7:54 PM CDT
Astronomical Twilight 5:33 AM CDT 8:29 PM CDT
Moon 4:40 AM CDT (10/2) 5:31 PM CDT (10/2)
Length of Visible Light 12h 37m
Length of Day
11h 37m
Waning Crescent, 6% of the Moon is Illuminated
Oct 2
Waning Crescent
Oct 4
New
Oct 11
First Quarter
Oct 18
Full
Oct 26
Last Quarter

Hourly Weather History & Observations

Time (CDT) Temp. Dew Point Humidity Pressure Visibility Wind Dir Wind Speed Gust Speed Precip Events Conditions
12:05 AM 41.0 °F 37.4 °F 87% 29.99 in 10.0 mi Calm Calm - N/A   Clear
12:25 AM 41.0 °F 35.6 °F 81% 29.99 in 10.0 mi Calm Calm - N/A   Clear
12:45 AM 41.0 °F 37.4 °F 87% 30.00 in 10.0 mi Calm Calm - N/A   Clear
1:05 AM 39.2 °F 35.6 °F 87% 30.00 in 10.0 mi Calm Calm - N/A   Clear
1:25 AM 39.2 °F 37.4 °F 93% 30.01 in 10.0 mi Calm Calm - N/A   Clear
1:45 AM 39.2 °F 35.6 °F 87% 30.02 in 10.0 mi Calm Calm - N/A   Clear
2:05 AM 39.2 °F 35.6 °F 87% 30.02 in 10.0 mi Calm Calm - N/A   Clear
2:25 AM 39.2 °F 35.6 °F 87% 30.02 in 10.0 mi Calm Calm - N/A   Clear
2:45 AM 37.4 °F 35.6 °F 93% 30.02 in 10.0 mi Calm Calm - N/A   Clear
3:05 AM 37.4 °F 35.6 °F 93% 30.02 in 10.0 mi Calm Calm - N/A   Clear
3:25 AM 37.4 °F 35.6 °F 93% 30.03 in 10.0 mi Calm Calm - N/A   Clear
3:45 AM 35.6 °F 33.8 °F 93% 30.02 in 10.0 mi Calm Calm - N/A   Clear
4:05 AM 35.6 °F 33.8 °F 93% 30.02 in 10.0 mi Calm Calm - N/A   Clear
4:25 AM 35.6 °F 33.8 °F 93% 30.02 in 10.0 mi Calm Calm - N/A   Clear
4:45 AM 35.6 °F 35.6 °F 100% 30.03 in 10.0 mi Calm Calm - N/A   Clear
5:05 AM 35.6 °F 33.8 °F 93% 30.04 in 10.0 mi Calm Calm - N/A   Clear
5:25 AM 33.8 °F 33.8 °F 100% 30.04 in 10.0 mi Calm Calm - N/A   Clear
5:45 AM 33.8 °F 33.8 °F 100% 30.03 in 10.0 mi Calm Calm - N/A   Clear
6:05 AM 33.8 °F 32.0 °F 93% 30.04 in 10.0 mi Calm Calm - N/A   Clear
6:25 AM 33.8 °F 32.0 °F 93% 30.04 in 10.0 mi Calm Calm - N/A   Clear
6:45 AM 33.8 °F 32.0 °F 93% 30.05 in 10.0 mi Calm Calm - N/A   Clear
7:05 AM 33.8 °F 32.0 °F 93% 30.05 in 10.0 mi Calm Calm - N/A   Clear
7:25 AM 33.8 °F 32.0 °F 93% 30.04 in 10.0 mi Calm Calm - N/A   Clear
7:45 AM 33.8 °F 33.8 °F 100% 30.04 in 10.0 mi Calm Calm - N/A   Clear
8:05 AM 37.4 °F 35.6 °F 93% 30.04 in 10.0 mi Calm Calm - N/A   Clear
8:25 AM 39.2 °F 37.4 °F 93% 30.04 in 10.0 mi Calm Calm - N/A   Clear
8:45 AM 42.8 °F 42.8 °F 100% 30.05 in 10.0 mi Calm Calm - N/A   Clear
9:05 AM 46.4 °F 42.8 °F 87% 30.05 in 10.0 mi Calm Calm - N/A   Clear
9:25 AM 51.8 °F 44.6 °F 76% 30.05 in 10.0 mi Calm Calm - N/A   Clear
9:45 AM 53.6 °F 42.8 °F 67% 30.05 in 10.0 mi Calm Calm - N/A   Clear
10:05 AM 55.4 °F 42.8 °F 63% 30.06 in 10.0 mi South 3.5 mph - N/A   Clear
10:25 AM 59.0 °F 42.8 °F 55% 30.05 in 10.0 mi SSE 4.6 mph - N/A   Clear
10:45 AM 64.4 °F 44.6 °F 49% 30.04 in 10.0 mi South 5.8 mph - N/A   Clear
11:05 AM 66.2 °F 44.6 °F 46% 30.04 in 10.0 mi SSE 5.8 mph - N/A   Clear
11:25 AM 66.2 °F 41.0 °F 40% 30.04 in 10.0 mi SSE 6.9 mph - N/A   Clear
11:45 AM 68.0 °F 39.2 °F 35% 30.04 in 10.0 mi SSE 6.9 mph - N/A   Clear
12:05 PM 68.0 °F 37.4 °F 33% 30.04 in 10.0 mi SSE 5.8 mph - N/A   Clear
12:25 PM 71.6 °F 39.2 °F 31% 30.04 in 10.0 mi SSE 5.8 mph - N/A   Clear
12:45 PM 71.6 °F 39.2 °F 31% 30.03 in 10.0 mi SE 5.8 mph - N/A   Clear
1:05 PM 71.6 °F 37.4 °F 29% 30.03 in 10.0 mi South 6.9 mph - N/A   Scattered Clouds
1:25 PM 71.6 °F 37.4 °F 29% 30.02 in 10.0 mi SSE 5.8 mph - N/A   Clear
1:45 PM 71.6 °F 37.4 °F 29% 30.00 in 10.0 mi SSE 9.2 mph - N/A   Clear
2:05 PM 71.6 °F 37.4 °F 29% 29.99 in 10.0 mi ESE 8.1 mph - N/A   Scattered Clouds
2:25 PM 71.6 °F 35.6 °F 27% 29.97 in 10.0 mi SE 8.1 mph - N/A   Overcast
2:45 PM 71.6 °F 37.4 °F 29% 29.95 in 10.0 mi SE 11.5 mph 17.3 mph N/A   Overcast
3:05 PM 71.6 °F 37.4 °F 29% 29.94 in 10.0 mi SE 12.7 mph - N/A   Scattered Clouds
3:25 PM 71.6 °F 39.2 °F 31% 29.93 in 10.0 mi SSE 9.2 mph - N/A   Mostly Cloudy
3:45 PM 69.8 °F 39.2 °F 33% 29.92 in 10.0 mi SE 3.5 mph - N/A   Overcast
4:05 PM 68.0 °F 37.4 °F 33% 29.91 in 10.0 mi SE 4.6 mph - N/A   Overcast
4:25 PM 68.0 °F 37.4 °F 33% 29.95 in 10.0 mi NNW 5.8 mph - N/A   Overcast
4:45 PM 66.2 °F 41.0 °F 40% 29.99 in 10.0 mi NW 11.5 mph 16.1 mph N/A   Overcast
5:05 PM 55.4 °F 48.2 °F 77% 29.99 in 10.0 mi NNW 8.1 mph - N/A   Overcast
5:25 PM 53.6 °F 48.2 °F 82% 29.97 in 10.0 mi North 5.8 mph - N/A   Overcast
5:45 PM 53.6 °F 48.2 °F 82% 29.97 in 10.0 mi North 6.9 mph - N/A   Overcast
6:05 PM 51.8 °F 48.2 °F 88% 29.98 in 7.0 mi NE 6.9 mph - N/A   Overcast
6:25 PM 51.8 °F 48.2 °F 88% 29.96 in 7.0 mi NE 6.9 mph - N/A   Overcast
6:45 PM 51.8 °F 48.2 °F 88% 29.97 in 10.0 mi NE 6.9 mph - N/A   Overcast
7:05 PM 51.8 °F 48.2 °F 88% 29.95 in 10.0 mi ENE 6.9 mph - N/A   Mostly Cloudy
7:25 PM 51.8 °F 48.2 °F 88% 29.96 in 10.0 mi NE 4.6 mph - N/A   Mostly Cloudy
7:45 PM 51.8 °F 48.2 °F 88% 29.96 in 10.0 mi NE 3.5 mph - N/A   Overcast
8:05 PM 51.8 °F 48.2 °F 88% 29.95 in 10.0 mi ENE 5.8 mph - N/A   Overcast
8:25 PM 51.8 °F 48.2 °F 88% 29.97 in 10.0 mi NNE 3.5 mph - N/A   Mostly Cloudy
8:45 PM 51.8 °F 48.2 °F 88% 29.97 in 10.0 mi ENE 5.8 mph - N/A   Mostly Cloudy
9:05 PM 51.8 °F 48.2 °F 88% 29.97 in 10.0 mi ENE 4.6 mph - N/A   Overcast
9:25 PM 51.8 °F 48.2 °F 88% 29.96 in 10.0 mi ENE 4.6 mph - N/A   Mostly Cloudy
9:45 PM 51.8 °F 48.2 °F 88% 29.96 in 10.0 mi NE 5.8 mph - N/A   Scattered Clouds
10:05 PM 51.8 °F 48.2 °F 88% 29.97 in 10.0 mi NE 3.5 mph - N/A   Mostly Cloudy
10:25 PM 51.8 °F 48.2 °F 88% 29.96 in 10.0 mi ENE 6.9 mph - N/A   Mostly Cloudy
10:45 PM 51.8 °F 48.2 °F 88% 29.95 in 10.0 mi NE 6.9 mph - N/A   Overcast
11:05 PM 51.8 °F 48.2 °F 88% 29.95 in 10.0 mi ENE 4.6 mph - N/A   Overcast
11:25 PM 51.8 °F 48.2 °F 88% 29.95 in 10.0 mi ENE 4.6 mph - N/A   Overcast
11:45 PM 51.8 °F 48.2 °F 88% 29.93 in 10.0 mi ENE 5.8 mph - N/A   Overcast